Time,TemperatureF,DewpointF,PressureIn,WindDirection,WindDirectionDegrees,WindSpeedMPH,WindSpeedGustMPH,Humidity,HourlyPrecipIn,Conditions,Clouds,dailyrainin,SoftwareType,DateUTC
2013-03-21 00:02:00,59.2,31.5,30.15,NE,45,17.0,22.0,35,0.00,,,0.20,meteohub,2013-03-21 07:02:00,
2013-03-21 00:08:00,59.2,31.5,30.15,NE,45,17.0,22.0,35,0.00,,,0.00,meteohub,2013-03-21 07:08:00,
2013-03-21 00:13:00,59.0,31.5,30.16,East,90,17.0,22.0,35,0.00,,,0.00,meteohub,2013-03-21 07:13:00,
2013-03-21 00:18:00,58.8,32.0,30.16,East,90,11.0,22.0,36,0.00,,,0.00,meteohub,2013-03-21 07:18:00,
2013-03-21 00:23:00,58.5,31.6,30.15,North,0,12.0,22.0,36,0.00,,,0.00,meteohub,2013-03-21 07:23:00,
2013-03-21 00:28:00,58.3,31.5,30.15,North,0,13.0,19.0,36,0.00,,,0.00,meteohub,2013-03-21 07:28:00,
2013-03-21 00:34:00,57.9,31.1,30.16,North,0,5.0,15.0,36,0.00,,,0.00,meteohub,2013-03-21 07:34:00,
2013-03-21 00:39:00,57.7,30.9,30.16,SE,135,4.0,14.0,36,0.00,,,0.00,meteohub,2013-03-21 07:39:00,
2013-03-21 00:44:00,57.4,30.6,30.15,East,90,7.0,13.0,36,0.00,,,0.00,meteohub,2013-03-21 07:44:00,
2013-03-21 00:49:00,57.4,31.3,30.15,East,90,8.0,11.0,37,0.00,,,0.00,meteohub,2013-03-21 07:49:00,
2013-03-21 00:55:00,57.4,31.3,30.15,SW,225,8.0,10.0,37,0.00,,,0.00,meteohub,2013-03-21 07:55:00,
2013-03-21 01:00:00,57.2,31.8,30.16,East,90,7.0,10.0,38,0.00,,,0.00,meteohub,2013-03-21 08:00:00,
2013-03-21 01:05:00,57.4,32.5,30.16,SSE,158,11.0,14.0,39,0.00,,,0.00,meteohub,2013-03-21 08:05:00,
2013-03-21 01:10:00,57.6,33.4,30.16,East,90,11.0,14.0,40,0.00,,,0.00,meteohub,2013-03-21 08:10:00,
2013-03-21 01:15:00,57.4,33.8,30.16,East,90,11.0,13.0,41,0.00,,,0.00,meteohub,2013-03-21 08:15:00,
2013-03-21 01:21:00,57.4,33.8,30.16,SE,135,10.0,13.0,41,0.00,,,0.00,meteohub,2013-03-21 08:21:00,
2013-03-21 01:26:00,57.2,33.6,30.16,SSW,203,11.0,16.0,41,0.00,,,0.00,meteohub,2013-03-21 08:26:00,
2013-03-21 01:31:00,57.2,34.3,30.17,ENE,68,8.0,16.0,42,0.00,,,0.00,meteohub,2013-03-21 08:31:00,
2013-03-21 01:37:00,57.2,34.3,30.17,NNW,338,9.0,15.0,42,0.00,,,0.00,meteohub,2013-03-21 08:37:00,
2013-03-21 01:42:00,57.0,34.7,30.17,East,90,8.0,15.0,43,0.00,,,0.00,meteohub,2013-03-21 08:42:00,
2013-03-21 01:47:00,56.8,34.5,30.17,SW,225,7.0,11.0,43,0.00,,,0.00,meteohub,2013-03-21 08:47:00,
2013-03-21 01:52:00,56.8,35.2,30.17,SE,135,6.0,9.0,44,0.00,,,0.00,meteohub,2013-03-21 08:52:00,
2013-03-21 01:57:00,56.7,35.1,30.17,SE,135,4.0,9.0,44,0.00,,,0.00,meteohub,2013-03-21 08:57:00,
2013-03-21 02:02:00,56.5,35.4,30.17,ESE,113,9.0,11.0,45,0.00,,,0.00,meteohub,2013-03-21 09:02:00,
2013-03-21 02:08:00,56.5,35.4,30.16,ESE,113,11.0,11.0,45,0.00,,,0.00,meteohub,2013-03-21 09:08:00,
2013-03-21 02:13:00,56.3,35.2,30.16,SE,135,14.0,14.0,45,0.00,,,0.00,meteohub,2013-03-21 09:13:00,
2013-03-21 02:18:00,56.3,35.2,30.15,ESE,113,11.0,14.0,45,0.00,,,0.00,meteohub,2013-03-21 09:18:00,
2013-03-21 02:23:00,56.1,35.1,30.16,SE,135,10.0,14.0,45,0.00,,,0.00,meteohub,2013-03-21 09:23:00,
2013-03-21 02:28:00,56.1,35.1,30.16,NNW,338,8.0,14.0,45,0.00,,,0.00,meteohub,2013-03-21 09:28:00,
2013-03-21 02:33:00,55.9,34.9,30.16,South,180,5.0,12.0,45,0.00,,,0.00,meteohub,2013-03-21 09:33:00,
2013-03-21 02:38:00,55.8,34.7,30.16,NE,45,7.0,10.0,45,0.00,,,0.00,meteohub,2013-03-21 09:38:00,
2013-03-21 02:43:00,55.6,34.5,30.16,East,90,3.0,8.0,45,0.00,,,0.00,meteohub,2013-03-21 09:43:00,
2013-03-21 02:48:00,55.6,35.1,30.17,ESE,113,7.0,8.0,46,0.00,,,0.00,meteohub,2013-03-21 09:48:00,
2013-03-21 02:53:00,55.6,35.1,30.16,South,180,8.0,14.0,46,0.00,,,0.00,meteohub,2013-03-21 09:53:00,
2013-03-21 02:58:00,55.4,34.9,30.15,SE,135,10.0,14.0,46,0.00,,,0.00,meteohub,2013-03-21 09:58:00,
2013-03-21 03:03:00,55.2,36.0,30.14,East,90,13.0,13.0,48,0.00,,,0.00,meteohub,2013-03-21 10:03:00,
2013-03-21 03:08:00,55.0,36.1,30.14,SSW,203,15.0,16.0,49,0.00,,,0.00,meteohub,2013-03-21 10:08:00,
2013-03-21 03:13:00,55.0,36.7,30.15,East,90,15.0,16.0,50,0.00,,,0.00,meteohub,2013-03-21 10:13:00,
2013-03-21 03:18:00,55.0,36.7,30.15,East,90,15.0,17.0,50,0.00,,,0.00,meteohub,2013-03-21 10:18:00,
2013-03-21 03:23:00,55.0,37.8,30.15,SSE,158,5.0,17.0,52,0.00,,,0.00,meteohub,2013-03-21 10:23:00,
2013-03-21 03:28:00,55.0,38.3,30.14,SSW,203,6.0,17.0,53,0.00,,,0.00,meteohub,2013-03-21 10:28:00,
2013-03-21 03:34:00,54.7,37.9,30.13,North,0,7.0,15.0,53,0.00,,,0.00,meteohub,2013-03-21 10:34:00,
2013-03-21 03:39:00,54.5,38.1,30.12,SSW,203,18.0,18.0,54,0.00,,,0.00,meteohub,2013-03-21 10:39:00,
2013-03-21 03:44:00,54.3,38.5,30.13,East,90,11.0,16.0,55,0.00,,,0.00,meteohub,2013-03-21 10:44:00,
2013-03-21 03:50:00,54.1,38.3,30.14,North,0,5.0,18.0,55,0.00,,,0.00,meteohub,2013-03-21 10:50:00,
2013-03-21 03:55:00,54.1,38.3,30.14,NW,315,4.0,15.0,55,0.00,,,0.00,meteohub,2013-03-21 10:55:00,
2013-03-21 04:00:00,54.0,38.1,30.13,SE,135,3.0,8.0,55,0.00,,,0.00,meteohub,2013-03-21 11:00:00,
2013-03-21 04:05:00,53.8,38.5,30.13,East,90,4.0,5.0,56,0.00,,,0.00,meteohub,2013-03-21 11:05:00,
2013-03-21 04:10:00,53.8,38.8,30.13,East,90,8.0,11.0,57,0.00,,,0.00,meteohub,2013-03-21 11:10:00,
2013-03-21 04:16:00,54.0,39.0,30.14,SSE,158,8.0,11.0,57,0.00,,,0.00,meteohub,2013-03-21 11:16:00,
2013-03-21 04:21:00,54.1,39.2,30.14,East,90,5.0,11.0,57,0.00,,,0.00,meteohub,2013-03-21 11:21:00,
2013-03-21 04:26:00,54.1,39.2,30.14,SE,135,5.0,11.0,57,0.00,,,0.00,meteohub,2013-03-21 11:26:00,
2013-03-21 04:32:00,54.1,39.2,30.14,SE,135,4.0,11.0,57,0.00,,,0.00,meteohub,2013-03-21 11:32:00,
2013-03-21 04:37:00,54.0,39.0,30.13,ESE,113,8.0,8.0,57,0.00,,,0.00,meteohub,2013-03-21 11:37:00,
2013-03-21 04:42:00,54.1,39.7,30.13,East,90,8.0,8.0,58,0.00,,,0.00,meteohub,2013-03-21 11:42:00,
2013-03-21 04:47:00,54.0,39.6,30.13,ENE,68,13.0,13.0,58,0.00,,,0.00,meteohub,2013-03-21 11:47:00,
2013-03-21 04:52:00,54.1,39.7,30.13,South,180,5.0,13.0,58,0.00,,,0.00,meteohub,2013-03-21 11:52:00,
2013-03-21 04:57:00,54.0,39.6,30.13,SE,135,11.0,13.0,58,0.00,,,0.00,meteohub,2013-03-21 11:57:00,
2013-03-21 05:02:00,54.1,39.7,30.13,SE,135,5.0,13.0,58,0.00,,,0.00,meteohub,2013-03-21 12:02:00,
2013-03-21 05:07:00,54.1,39.7,30.12,SE,135,10.0,11.0,58,0.00,,,0.00,meteohub,2013-03-21 12:07:00,
2013-03-21 05:13:00,54.1,39.7,30.12,ESE,113,14.0,14.0,58,0.00,,,0.00,meteohub,2013-03-21 12:13:00,
2013-03-21 05:18:00,54.1,39.7,30.13,SSE,158,12.0,14.0,58,0.00,,,0.00,meteohub,2013-03-21 12:18:00,
2013-03-21 05:23:00,54.3,40.3,30.13,East,90,8.0,14.0,59,0.00,,,0.00,meteohub,2013-03-21 12:23:00,
2013-03-21 05:28:00,54.1,40.1,30.12,East,90,11.0,15.0,59,0.00,,,0.00,meteohub,2013-03-21 12:28:00,
2013-03-21 05:33:00,54.1,40.1,30.12,SE,135,11.0,15.0,59,0.00,,,0.00,meteohub,2013-03-21 12:33:00,
2013-03-21 05:38:00,54.1,40.1,30.12,SE,135,3.0,15.0,59,0.00,,,0.00,meteohub,2013-03-21 12:38:00,
2013-03-21 05:43:00,54.1,40.1,30.12,East,90,3.0,12.0,59,0.00,,,0.00,meteohub,2013-03-21 12:43:00,
2013-03-21 05:49:00,54.0,40.5,30.12,South,180,2.0,11.0,60,0.00,,,0.00,meteohub,2013-03-21 12:49:00,
2013-03-21 05:54:00,53.8,40.3,30.12,SE,135,3.0,8.0,60,0.00,,,0.00,meteohub,2013-03-21 12:54:00,
2013-03-21 05:59:00,53.6,40.1,30.12,SW,225,5.0,7.0,60,0.00,,,0.00,meteohub,2013-03-21 12:59:00,
2013-03-21 06:04:00,53.8,40.6,30.12,South,180,10.0,10.0,61,0.00,,,0.00,meteohub,2013-03-21 13:04:00,
2013-03-21 06:09:00,54.0,40.8,30.12,SE,135,10.0,11.0,61,0.00,,,0.00,meteohub,2013-03-21 13:09:00,
2013-03-21 06:14:00,53.8,40.6,30.12,SE,135,4.0,11.0,61,0.00,,,0.00,meteohub,2013-03-21 13:14:00,
2013-03-21 06:20:00,53.8,40.6,30.12,South,180,5.0,11.0,61,0.00,,,0.00,meteohub,2013-03-21 13:20:00,
2013-03-21 06:25:00,53.6,40.5,30.12,East,90,5.0,11.0,61,0.00,,,0.00,meteohub,2013-03-21 13:25:00,
2013-03-21 06:30:00,53.6,40.5,30.12,SSE,158,7.0,11.0,61,0.00,,,0.00,meteohub,2013-03-21 13:30:00,
2013-03-21 06:35:00,53.6,40.5,30.13,North,0,2.0,11.0,61,0.00,,,0.00,meteohub,2013-03-21 13:35:00,
2013-03-21 06:40:00,53.1,40.8,30.13,SE,135,8.0,10.0,63,0.00,,,0.00,meteohub,2013-03-21 13:40:00,
2013-03-21 06:45:00,53.1,40.8,30.12,SSE,158,4.0,10.0,63,0.00,,,0.00,meteohub,2013-03-21 13:45:00,
2013-03-21 06:50:00,52.9,40.6,30.13,SE,135,4.0,8.0,63,0.00,,,0.00,meteohub,2013-03-21 13:50:00,
2013-03-21 06:55:00,52.9,41.0,30.13,SW,225,3.0,8.0,64,0.00,,,0.00,meteohub,2013-03-21 13:55:00,
2013-03-21 07:01:00,52.3,40.5,30.14,NW,315,4.0,8.0,64,0.00,,,0.00,meteohub,2013-03-21 14:01:00,
2013-03-21 07:06:00,52.2,40.8,30.14,SSW,203,4.0,8.0,65,0.00,,,0.00,meteohub,2013-03-21 14:06:00,
2013-03-21 07:11:00,52.2,40.8,30.13,SW,225,2.0,5.0,65,0.00,,,0.00,meteohub,2013-03-21 14:11:00,
2013-03-21 07:16:00,52.2,40.8,30.13,SSE,158,5.0,5.0,65,0.00,,,0.00,meteohub,2013-03-21 14:16:00,
2013-03-21 07:22:00,52.2,40.8,30.14,SSE,158,5.0,5.0,65,0.00,,,0.00,meteohub,2013-03-21 14:22:00,
2013-03-21 07:27:00,52.9,41.0,30.14,WSW,248,4.0,5.0,64,0.00,,,0.00,meteohub,2013-03-21 14:27:00,
2013-03-21 07:32:00,52.9,41.0,30.14,West,270,5.0,6.0,64,0.00,,,0.00,meteohub,2013-03-21 14:32:00,
2013-03-21 07:37:00,52.9,41.0,30.14,West,270,3.0,6.0,64,0.00,,,0.00,meteohub,2013-03-21 14:37:00,
2013-03-21 07:42:00,53.6,41.4,30.14,SW,225,2.0,6.0,63,0.00,,,0.00,meteohub,2013-03-21 14:42:00,
2013-03-21 07:47:00,53.6,41.4,30.14,SW,225,2.0,5.0,63,0.00,,,0.00,meteohub,2013-03-21 14:47:00,
2013-03-21 07:52:00,58.1,41.5,30.14,West,270,4.0,4.0,54,0.00,,,0.00,meteohub,2013-03-21 14:52:00,
2013-03-21 07:58:00,58.1,41.5,30.14,West,270,4.0,4.0,54,0.00,,,0.00,meteohub,2013-03-21 14:58:00,
2013-03-21 08:03:00,58.8,41.7,30.14,SW,225,1.0,4.0,53,0.00,,,0.00,meteohub,2013-03-21 15:03:00,
2013-03-21 08:08:00,58.8,41.7,30.14,SW,225,1.0,4.0,53,0.00,,,0.00,meteohub,2013-03-21 15:08:00,
2013-03-21 08:13:00,62.2,40.6,30.14,SW,225,4.0,4.0,45,0.00,,,0.00,meteohub,2013-03-21 15:13:00,
2013-03-21 08:18:00,61.9,39.7,30.14,West,270,3.0,4.0,44,0.00,,,0.00,meteohub,2013-03-21 15:18:00,
2013-03-21 08:24:00,61.9,39.7,30.14,West,270,3.0,4.0,44,0.00,,,0.00,meteohub,2013-03-21 15:24:00,
2013-03-21 08:29:00,61.9,39.7,30.14,West,270,3.0,4.0,44,0.00,,,0.00,meteohub,2013-03-21 15:29:00,
2013-03-21 08:34:00,61.5,39.9,30.15,East,90,2.0,4.0,45,0.00,,,0.00,meteohub,2013-03-21 15:34:00,
2013-03-21 08:39:00,63.0,40.1,30.15,SW,225,4.0,4.0,43,0.00,,,0.00,meteohub,2013-03-21 15:39:00,
2013-03-21 08:45:00,63.3,38.7,30.15,SE,135,4.0,4.0,40,0.00,,,0.00,meteohub,2013-03-21 15:45:00,
2013-03-21 08:50:00,63.5,37.4,30.14,SE,135,3.0,4.0,38,0.00,,,0.00,meteohub,2013-03-21 15:50:00,
2013-03-21 08:55:00,63.9,37.8,30.14,South,180,8.0,8.0,38,0.00,,,0.00,meteohub,2013-03-21 15:55:00,
2013-03-21 09:00:00,63.9,37.8,30.15,South,180,8.0,8.0,38,0.00,,,0.00,meteohub,2013-03-21 16:00:00,
2013-03-21 09:06:00,63.9,37.8,30.14,South,180,8.0,8.0,38,0.00,,,0.00,meteohub,2013-03-21 16:06:00,
2013-03-21 09:11:00,63.3,37.2,30.15,ESE,113,8.0,8.0,38,0.00,,,0.00,meteohub,2013-03-21 16:11:00,
2013-03-21 09:16:00,63.9,34.9,30.15,South,180,8.0,8.0,34,0.00,,,0.00,meteohub,2013-03-21 16:16:00,
2013-03-21 09:22:00,64.0,35.1,30.14,NNE,23,7.0,8.0,34,0.00,,,0.00,meteohub,2013-03-21 16:22:00,
2013-03-21 09:27:00,65.1,36.9,30.16,NE,45,6.0,8.0,35,0.00,,,0.00,meteohub,2013-03-21 16:27:00,
2013-03-21 09:32:00,65.1,36.9,30.15,NE,45,6.0,8.0,35,0.00,,,0.00,meteohub,2013-03-21 16:32:00,
2013-03-21 09:37:00,65.1,36.9,30.15,NE,45,6.0,7.0,35,0.00,,,0.00,meteohub,2013-03-21 16:37:00,
2013-03-21 09:42:00,68.2,31.1,30.16,South,180,12.0,12.0,25,0.00,,,0.00,meteohub,2013-03-21 16:42:00,
2013-03-21 09:47:00,66.7,30.7,30.16,ESE,113,9.0,12.0,26,0.00,,,0.00,meteohub,2013-03-21 16:47:00,
2013-03-21 09:52:00,66.6,31.5,30.15,SSW,203,7.0,12.0,27,0.00,,,0.00,meteohub,2013-03-21 16:52:00,
2013-03-21 09:57:00,66.7,31.6,30.16,NE,45,9.0,12.0,27,0.00,,,0.00,meteohub,2013-03-21 16:57:00,
2013-03-21 10:02:00,67.6,32.5,30.16,SE,135,10.0,12.0,27,0.00,,,0.00,meteohub,2013-03-21 17:02:00,
2013-03-21 10:07:00,69.1,30.7,30.16,South,180,8.0,12.0,24,0.00,,,0.00,meteohub,2013-03-21 17:07:00,
2013-03-21 10:12:00,69.4,30.0,30.16,SE,135,11.0,11.0,23,0.00,,,0.00,meteohub,2013-03-21 17:12:00,
2013-03-21 10:19:00,68.5,29.3,30.16,South,180,8.0,11.0,23,0.00,,,0.00,meteohub,2013-03-21 17:19:00,
2013-03-21 10:24:00,69.4,27.9,30.16,SSE,158,6.0,11.0,21,0.00,,,0.00,meteohub,2013-03-21 17:24:00,
2013-03-21 10:29:00,69.4,27.9,30.15,SSE,158,6.0,11.0,21,0.00,,,0.00,meteohub,2013-03-21 17:29:00,
2013-03-21 10:34:00,70.0,27.1,30.16,SSW,203,8.0,11.0,20,0.00,,,0.00,meteohub,2013-03-21 17:34:00,
2013-03-21 10:40:00,70.0,27.1,30.15,SSW,203,8.0,8.0,20,0.00,,,0.00,meteohub,2013-03-21 17:40:00,
2013-03-21 10:45:00,70.0,27.1,30.15,SSW,203,8.0,8.0,20,0.00,,,0.00,meteohub,2013-03-21 17:45:00,
2013-03-21 10:57:00,72.1,21.9,30.14,SE,135,10.0,10.0,15,0.00,,,0.00,meteohub,2013-03-21 17:57:00,
2013-03-21 11:03:00,72.1,21.9,30.14,SE,135,10.0,10.0,15,0.00,,,0.00,meteohub,2013-03-21 18:03:00,
2013-03-21 11:08:00,71.6,21.6,30.14,SW,225,4.0,10.0,15,0.00,,,0.00,meteohub,2013-03-21 18:08:00,
2013-03-21 11:13:00,72.1,20.3,30.14,South,180,11.0,11.0,14,0.00,,,0.00,meteohub,2013-03-21 18:13:00,
2013-03-21 11:18:00,71.4,21.4,30.14,SE,135,8.0,11.0,15,0.00,,,0.00,meteohub,2013-03-21 18:18:00,
2013-03-21 11:23:00,70.7,19.2,30.14,SE,135,10.0,11.0,14,0.00,,,0.00,meteohub,2013-03-21 18:23:00,
2013-03-21 11:28:00,70.5,20.7,30.14,SE,135,12.0,12.0,15,0.00,,,0.00,meteohub,2013-03-21 18:28:00,
2013-03-21 11:34:00,70.7,20.8,30.13,NE,45,11.0,12.0,15,0.00,,,0.00,meteohub,2013-03-21 18:34:00,
2013-03-21 11:39:00,70.9,20.8,30.13,East,90,6.0,13.0,15,0.00,,,0.00,meteohub,2013-03-21 18:39:00,
2013-03-21 11:44:00,72.0,20.1,30.13,SSE,158,8.0,13.0,14,0.00,,,0.00,meteohub,2013-03-21 18:44:00,
2013-03-21 11:49:00,70.7,22.3,30.13,SSE,158,8.0,13.0,16,0.00,,,0.00,meteohub,2013-03-21 18:49:00,
2013-03-21 11:55:00,70.5,19.0,30.13,South,180,7.0,12.0,14,0.00,,,0.00,meteohub,2013-03-21 18:55:00,
2013-03-21 12:00:00,70.7,20.8,30.12,NE,45,3.0,13.0,15,0.00,,,0.00,meteohub,2013-03-21 19:00:00,
2013-03-21 12:05:00,72.3,20.5,30.12,South,180,7.0,13.0,14,0.00,,,0.00,meteohub,2013-03-21 19:05:00,
2013-03-21 12:10:00,71.8,18.3,30.12,SW,225,4.0,13.0,13,0.00,,,0.00,meteohub,2013-03-21 19:10:00,
2013-03-21 12:15:00,71.6,19.9,30.12,West,270,4.0,11.0,14,0.00,,,0.00,meteohub,2013-03-21 19:15:00,
2013-03-21 12:20:00,72.7,20.7,30.12,SW,225,4.0,11.0,14,0.00,,,0.00,meteohub,2013-03-21 19:20:00,
2013-03-21 12:25:00,72.1,16.7,30.11,SE,135,6.0,9.0,12,0.00,,,0.00,meteohub,2013-03-21 19:25:00,
2013-03-21 12:31:00,72.0,18.5,30.11,ESE,113,8.0,11.0,13,0.00,,,0.00,meteohub,2013-03-21 19:31:00,
2013-03-21 12:36:00,72.5,17.1,30.10,South,180,4.0,11.0,12,0.00,,,0.00,meteohub,2013-03-21 19:36:00,
2013-03-21 12:42:00,72.5,17.1,30.10,West,270,4.0,8.0,12,0.00,,,0.00,meteohub,2013-03-21 19:42:00,
2013-03-21 12:47:00,72.5,17.1,30.10,East,90,2.0,8.0,12,0.00,,,0.00,meteohub,2013-03-21 19:47:00,
2013-03-21 12:52:00,73.6,23.0,30.10,East,90,3.0,8.0,15,0.00,,,0.00,meteohub,2013-03-21 19:52:00,
2013-03-21 12:57:00,74.5,23.7,30.09,NW,315,4.0,5.0,15,0.00,,,0.00,meteohub,2013-03-21 19:57:00,
2013-03-21 13:03:00,75.2,22.6,30.09,SE,135,9.0,9.0,14,0.00,,,0.00,meteohub,2013-03-21 20:03:00,
2013-03-21 13:08:00,73.0,15.4,30.09,NE,45,2.0,9.0,11,0.00,,,0.00,meteohub,2013-03-21 20:08:00,
2013-03-21 13:13:00,74.7,23.9,30.09,NNW,338,4.0,9.0,15,0.00,,,0.00,meteohub,2013-03-21 20:13:00,
2013-03-21 13:18:00,74.8,22.5,30.08,SE,135,2.0,9.0,14,0.00,,,0.00,meteohub,2013-03-21 20:18:00,
2013-03-21 13:23:00,75.4,21.2,30.09,SW,225,3.0,6.0,13,0.00,,,0.00,meteohub,2013-03-21 20:23:00,
2013-03-21 13:29:00,75.4,21.2,30.08,SE,135,5.0,6.0,13,0.00,,,0.00,meteohub,2013-03-21 20:29:00,
2013-03-21 13:34:00,75.6,21.2,30.08,NW,315,9.0,9.0,13,0.00,,,0.00,meteohub,2013-03-21 20:34:00,
2013-03-21 13:39:00,75.7,21.4,30.08,SE,135,6.0,8.0,13,0.00,,,0.00,meteohub,2013-03-21 20:39:00,
2013-03-21 13:45:00,75.4,21.2,30.07,SE,135,7.0,10.0,13,0.00,,,0.00,meteohub,2013-03-21 20:45:00,
2013-03-21 13:50:00,75.9,21.6,30.07,North,0,4.0,10.0,13,0.00,,,0.00,meteohub,2013-03-21 20:50:00,
2013-03-21 13:55:00,76.6,22.1,30.07,East,90,8.0,10.0,13,0.00,,,0.00,meteohub,2013-03-21 20:55:00,
2013-03-21 14:00:00,76.8,22.3,30.07,South,180,3.0,9.0,13,0.00,,,0.00,meteohub,2013-03-21 21:00:00,
2013-03-21 14:05:00,77.0,20.5,30.06,SE,135,4.0,9.0,12,0.00,,,0.00,meteohub,2013-03-21 21:05:00,
2013-03-21 14:11:00,75.2,21.0,30.06,South,180,9.0,9.0,13,0.00,,,0.00,meteohub,2013-03-21 21:11:00,
2013-03-21 14:16:00,74.3,22.1,30.06,South,180,13.0,13.0,14,0.00,,,0.00,meteohub,2013-03-21 21:16:00,
2013-03-21 14:21:00,74.3,22.1,30.06,ENE,68,5.0,13.0,14,0.00,,,0.00,meteohub,2013-03-21 21:21:00,
2013-03-21 14:26:00,75.4,21.2,30.06,SE,135,3.0,13.0,13,0.00,,,0.00,meteohub,2013-03-21 21:26:00,
2013-03-21 14:32:00,76.1,21.7,30.06,SSW,203,7.0,13.0,13,0.00,,,0.00,meteohub,2013-03-21 21:32:00,
2013-03-21 14:37:00,76.1,21.7,30.05,SSW,203,7.0,10.0,13,0.00,,,0.00,meteohub,2013-03-21 21:37:00,
2013-03-21 14:42:00,77.2,18.7,30.05,South,180,10.0,10.0,11,0.00,,,0.00,meteohub,2013-03-21 21:42:00,
2013-03-21 14:47:00,76.1,19.8,30.05,South,180,8.0,10.0,12,0.00,,,0.00,meteohub,2013-03-21 21:47:00,
2013-03-21 14:52:00,76.5,20.1,30.04,SE,135,13.0,13.0,12,0.00,,,0.00,meteohub,2013-03-21 21:52:00,
2013-03-21 14:57:00,77.0,18.5,30.04,NW,315,4.0,13.0,11,0.00,,,0.00,meteohub,2013-03-21 21:57:00,
2013-03-21 15:02:00,77.0,18.5,30.04,NW,315,4.0,13.0,11,0.00,,,0.00,meteohub,2013-03-21 22:02:00,
2013-03-21 15:07:00,76.1,21.7,30.04,SE,135,12.0,13.0,13,0.00,,,0.00,meteohub,2013-03-21 22:07:00,
2013-03-21 15:12:00,75.4,19.2,30.04,WSW,248,4.0,12.0,12,0.00,,,0.00,meteohub,2013-03-21 22:12:00,
2013-03-21 15:17:00,75.4,19.2,30.04,South,180,4.0,12.0,12,0.00,,,0.00,meteohub,2013-03-21 22:17:00,
2013-03-21 15:22:00,75.4,19.2,30.03,South,180,4.0,12.0,12,0.00,,,0.00,meteohub,2013-03-21 22:22:00,
2013-03-21 15:28:00,74.5,22.1,30.04,SSW,203,15.0,15.0,14,0.00,,,0.00,meteohub,2013-03-21 22:28:00,
2013-03-21 15:33:00,75.2,21.0,30.03,ESE,113,12.0,17.0,13,0.00,,,0.00,meteohub,2013-03-21 22:33:00,
2013-03-21 15:38:00,75.7,19.6,30.03,SE,135,15.0,17.0,12,0.00,,,0.00,meteohub,2013-03-21 22:38:00,
2013-03-21 15:43:00,75.9,19.6,30.03,SE,135,9.0,17.0,12,0.00,,,0.00,meteohub,2013-03-21 22:43:00,
2013-03-21 15:49:00,75.7,19.6,30.03,SSE,158,8.0,16.0,12,0.00,,,0.00,meteohub,2013-03-21 22:49:00,
2013-03-21 15:54:00,75.6,19.4,30.03,SE,135,15.0,16.0,12,0.00,,,0.00,meteohub,2013-03-21 22:54:00,
2013-03-21 15:59:00,76.5,21.9,30.02,SSE,158,7.0,16.0,13,0.00,,,0.00,meteohub,2013-03-21 22:59:00,
2013-03-21 16:04:00,76.3,19.9,30.02,South,180,9.0,15.0,12,0.00,,,0.00,meteohub,2013-03-21 23:04:00,
2013-03-21 16:10:00,76.3,19.9,30.02,South,180,8.0,15.0,12,0.00,,,0.00,meteohub,2013-03-21 23:10:00,
2013-03-21 16:15:00,76.3,19.9,30.02,SE,135,15.0,15.0,12,0.00,,,0.00,meteohub,2013-03-21 23:15:00,
2013-03-21 16:20:00,76.5,21.9,30.02,East,90,12.0,17.0,13,0.00,,,0.00,meteohub,2013-03-21 23:20:00,
2013-03-21 16:25:00,77.0,18.5,30.01,East,90,17.0,17.0,11,0.00,,,0.00,meteohub,2013-03-21 23:25:00,
2013-03-21 16:30:00,77.0,18.5,30.01,SE,135,15.0,15.0,11,0.00,,,0.00,meteohub,2013-03-21 23:30:00,
2013-03-21 16:35:00,76.3,21.7,30.01,SE,135,13.0,21.0,13,0.00,,,0.00,meteohub,2013-03-21 23:35:00,
2013-03-21 16:40:00,76.1,19.8,30.02,SE,135,17.0,21.0,12,0.00,,,0.00,meteohub,2013-03-21 23:40:00,
2013-03-21 16:45:00,76.3,19.9,30.02,East,90,16.0,22.0,12,0.00,,,0.00,meteohub,2013-03-21 23:45:00,
2013-03-21 16:51:00,76.3,19.9,30.00,East,90,12.0,22.0,12,0.00,,,0.00,meteohub,2013-03-21 23:51:00,
2013-03-21 16:56:00,76.3,23.5,30.00,SE,135,15.0,22.0,14,0.00,,,0.00,meteohub,2013-03-21 23:56:00,
2013-03-21 17:01:00,75.7,19.6,30.00,SE,135,17.0,17.0,12,0.00,,,0.00,meteohub,2013-03-22 00:01:00,
2013-03-21 17:06:00,75.7,19.6,29.99,SE,135,17.0,17.0,12,0.00,,,0.00,meteohub,2013-03-22 00:06:00,
2013-03-21 17:12:00,75.7,19.6,29.99,ESE,113,10.0,17.0,12,0.00,,,0.00,meteohub,2013-03-22 00:12:00,
2013-03-21 17:17:00,75.6,23.0,29.99,East,90,17.0,17.0,14,0.00,,,0.00,meteohub,2013-03-22 00:17:00,
2013-03-21 17:22:00,75.0,20.8,29.99,SE,135,11.0,19.0,13,0.00,,,0.00,meteohub,2013-03-22 00:22:00,
2013-03-21 17:27:00,74.8,20.7,30.00,ESE,113,14.0,19.0,13,0.00,,,0.00,meteohub,2013-03-22 00:27:00,
2013-03-21 17:32:00,75.0,22.6,30.00,SE,135,17.0,19.0,14,0.00,,,0.00,meteohub,2013-03-22 00:32:00,
2013-03-21 17:37:00,74.8,27.1,30.00,SW,225,15.0,17.0,17,0.00,,,0.00,meteohub,2013-03-22 00:37:00,
2013-03-21 17:43:00,74.5,25.3,30.00,North,0,11.0,17.0,16,0.00,,,0.00,meteohub,2013-03-22 00:43:00,
2013-03-21 17:48:00,74.1,32.9,30.00,North,0,16.0,17.0,22,0.00,,,0.00,meteohub,2013-03-22 00:48:00,
2013-03-21 17:53:00,73.2,29.7,30.01,North,0,15.0,16.0,20,0.00,,,0.00,meteohub,2013-03-22 00:53:00,
2013-03-21 17:58:00,72.7,29.3,30.01,ENE,68,14.0,17.0,20,0.00,,,0.00,meteohub,2013-03-22 00:58:00,
2013-03-21 18:03:00,72.3,16.9,30.02,SE,135,18.0,18.0,12,0.00,,,0.00,meteohub,2013-03-22 01:03:00,
2013-03-21 18:09:00,71.4,16.2,30.02,ESE,113,19.0,22.0,12,0.00,,,0.00,meteohub,2013-03-22 01:09:00,
2013-03-21 18:14:00,70.7,15.6,30.02,NE,45,14.0,25.0,12,0.07,,,0.07,meteohub,2013-03-22 01:14:00,
2013-03-21 18:19:00,70.2,15.1,30.02,East,90,21.0,25.0,12,0.07,,,0.07,meteohub,2013-03-22 01:19:00,
2013-03-21 18:24:00,69.8,16.7,30.01,NE,45,17.0,25.0,13,0.07,,,0.07,meteohub,2013-03-22 01:24:00,
2013-03-21 18:29:00,68.9,17.8,30.01,East,90,16.0,21.0,14,0.07,,,0.07,meteohub,2013-03-22 01:29:00,
2013-03-21 18:34:00,68.4,17.2,30.01,NW,315,10.0,21.0,14,0.07,,,0.07,meteohub,2013-03-22 01:34:00,
2013-03-21 18:40:00,68.0,18.7,30.01,SSE,158,13.0,21.0,15,0.07,,,0.07,meteohub,2013-03-22 01:40:00,
2013-03-21 18:45:00,66.9,20.7,30.02,East,90,14.0,21.0,17,0.07,,,0.07,meteohub,2013-03-22 01:45:00,
2013-03-21 18:50:00,66.0,25.0,30.02,SE,135,15.0,21.0,21,0.07,,,0.07,meteohub,2013-03-22 01:50:00,
2013-03-21 18:55:00,65.3,24.4,30.02,East,90,14.0,17.0,21,0.07,,,0.07,meteohub,2013-03-22 01:55:00,
2013-03-21 19:00:00,64.6,24.8,30.02,SE,135,21.0,21.0,22,0.07,,,0.07,meteohub,2013-03-22 02:00:00,
2013-03-21 19:06:00,64.4,24.8,30.02,East,90,21.0,21.0,22,0.07,,,0.07,meteohub,2013-03-22 02:06:00,
2013-03-21 19:11:00,61.9,26.6,30.02,SE,135,15.0,21.0,26,0.00,,,0.07,meteohub,2013-03-22 02:11:00,
2013-03-21 19:16:00,61.2,27.9,30.02,SE,135,14.0,21.0,28,0.00,,,0.07,meteohub,2013-03-22 02:16:00,
2013-03-21 19:21:00,61.2,28.6,30.03,SW,225,20.0,21.0,29,0.00,,,0.07,meteohub,2013-03-22 02:21:00,
2013-03-21 19:26:00,60.6,25.5,30.03,ESE,113,27.0,27.0,26,0.00,,,0.07,meteohub,2013-03-22 02:26:00,
2013-03-21 19:31:00,60.6,25.5,30.05,ESE,113,27.0,27.0,26,0.00,,,0.07,meteohub,2013-03-22 02:31:00,
2013-03-21 19:37:00,60.3,24.3,30.03,East,90,15.0,27.0,25,0.00,,,0.07,meteohub,2013-03-22 02:37:00,
2013-03-21 19:42:00,59.9,23.9,30.05,East,90,19.0,27.0,25,0.00,,,0.07,meteohub,2013-03-22 02:42:00,
2013-03-21 19:47:00,59.7,24.8,30.04,East,90,14.0,27.0,26,0.00,,,0.07,meteohub,2013-03-22 02:47:00,
2013-03-21 19:52:00,59.2,26.1,30.04,SSW,203,16.0,19.0,28,0.00,,,0.07,meteohub,2013-03-22 02:52:00,
2013-03-21 19:58:00,58.8,27.5,30.04,East,90,21.0,21.0,30,0.00,,,0.07,meteohub,2013-03-22 02:58:00,
2013-03-21 20:03:00,58.3,27.9,30.05,SW,225,10.0,21.0,31,0.00,,,0.07,meteohub,2013-03-22 03:03:00,
2013-03-21 20:08:00,57.7,27.3,30.05,SW,225,19.0,21.0,31,0.00,,,0.07,meteohub,2013-03-22 03:08:00,
2013-03-21 20:13:00,57.4,27.7,30.05,SE,135,14.0,21.0,32,0.00,,,0.07,meteohub,2013-03-22 03:13:00,
2013-03-21 20:18:00,57.0,28.2,30.05,East,90,16.0,19.0,33,0.00,,,0.07,meteohub,2013-03-22 03:18:00,
2013-03-21 20:24:00,56.7,27.9,30.05,SE,135,16.0,19.0,33,0.00,,,0.07,meteohub,2013-03-22 03:24:00,
2013-03-21 20:29:00,56.5,27.0,30.05,SE,135,19.0,19.0,32,0.00,,,0.07,meteohub,2013-03-22 03:29:00,
2013-03-21 20:34:00,56.3,26.8,30.05,South,180,13.0,18.0,32,0.00,,,0.07,meteohub,2013-03-22 03:34:00,
2013-03-21 20:39:00,56.1,26.6,30.05,East,90,16.0,19.0,32,0.00,,,0.07,meteohub,2013-03-22 03:39:00,
2013-03-21 20:44:00,55.9,26.4,30.06,East,90,14.0,19.0,32,0.00,,,0.07,meteohub,2013-03-22 03:44:00,
2013-03-21 20:49:00,55.8,26.4,30.05,ENE,68,21.0,21.0,32,0.00,,,0.07,meteohub,2013-03-22 03:49:00,
2013-03-21 20:54:00,55.4,26.1,30.05,NW,315,16.0,23.0,32,0.00,,,0.07,meteohub,2013-03-22 03:54:00,
2013-03-21 21:00:00,55.4,26.1,30.04,South,180,16.0,23.0,32,0.00,,,0.07,meteohub,2013-03-22 04:00:00,
2013-03-21 21:03:00,55.4,26.1,30.04,South,180,16.0,23.0,32,0.00,,,0.07,meteohub,2013-03-22 04:03:00,
2013-03-21 21:09:00,55.2,25.2,30.04,East,90,21.0,22.0,31,0.00,,,0.07,meteohub,2013-03-22 04:09:00,
2013-03-21 21:14:00,55.0,25.7,30.05,ESE,113,16.0,22.0,32,0.00,,,0.07,meteohub,2013-03-22 04:14:00,
2013-03-21 21:19:00,54.9,25.5,30.05,East,90,23.0,23.0,32,0.00,,,0.07,meteohub,2013-03-22 04:19:00,
2013-03-21 21:24:00,54.9,24.8,30.06,ENE,68,21.0,23.0,31,0.00,,,0.07,meteohub,2013-03-22 04:24:00,
2013-03-21 21:29:00,54.9,24.8,30.05,SSE,158,22.0,23.0,31,0.00,,,0.07,meteohub,2013-03-22 04:29:00,
2013-03-21 21:34:00,54.7,25.3,30.05,East,90,17.0,27.0,32,0.00,,,0.07,meteohub,2013-03-22 04:34:00,
2013-03-21 21:39:00,54.3,25.2,30.05,WSW,248,16.0,27.0,32,0.00,,,0.07,meteohub,2013-03-22 04:39:00,
2013-03-21 21:45:00,54.1,24.1,30.05,East,90,16.0,23.0,31,0.00,,,0.07,meteohub,2013-03-22 04:45:00,
2013-03-21 21:50:00,54.1,23.4,30.05,East,90,15.0,23.0,30,0.00,,,0.07,meteohub,2013-03-22 04:50:00,
2013-03-21 21:55:00,54.0,22.5,30.06,East,90,17.0,23.0,29,0.00,,,0.07,meteohub,2013-03-22 04:55:00,
2013-03-21 22:00:00,54.0,22.5,30.05,NE,45,20.0,20.0,29,0.00,,,0.07,meteohub,2013-03-22 05:00:00,
2013-03-21 22:05:00,54.0,21.6,30.05,East,90,17.0,20.0,28,0.00,,,0.07,meteohub,2013-03-22 05:05:00,
2013-03-21 22:10:00,54.0,21.6,30.05,SE,135,21.0,21.0,28,0.00,,,0.07,meteohub,2013-03-22 05:10:00,
2013-03-21 22:15:00,53.8,21.4,30.05,East,90,17.0,21.0,28,0.00,,,0.07,meteohub,2013-03-22 05:15:00,
2013-03-21 22:21:00,53.6,20.5,30.05,East,90,16.0,21.0,27,0.00,,,0.07,meteohub,2013-03-22 05:21:00,
2013-03-21 22:26:00,53.6,19.6,30.04,North,0,22.0,22.0,26,0.00,,,0.07,meteohub,2013-03-22 05:26:00,
2013-03-21 22:31:00,53.8,17.8,30.04,East,90,18.0,22.0,24,0.00,,,0.07,meteohub,2013-03-22 05:31:00,
2013-03-21 22:37:00,53.8,16.9,30.04,WNW,293,28.0,28.0,23,0.00,,,0.07,meteohub,2013-03-22 05:37:00,
2013-03-21 22:42:00,53.8,16.9,30.05,East,90,18.0,28.0,23,0.00,,,0.07,meteohub,2013-03-22 05:42:00,
2013-03-21 22:47:00,53.8,15.8,30.05,NE,45,22.0,28.0,22,0.00,,,0.07,meteohub,2013-03-22 05:47:00,
2013-03-21 22:52:00,53.8,15.8,30.05,East,90,17.0,28.0,22,0.00,,,0.07,meteohub,2013-03-22 05:52:00,
2013-03-21 22:58:00,53.6,16.7,30.06,East,90,21.0,22.0,23,0.00,,,0.07,meteohub,2013-03-22 05:58:00,
2013-03-21 23:03:00,53.6,17.6,30.06,East,90,15.0,22.0,24,0.00,,,0.07,meteohub,2013-03-22 06:03:00,
2013-03-21 23:08:00,53.6,17.6,30.06,East,90,15.0,21.0,24,0.00,,,0.07,meteohub,2013-03-22 06:08:00,
2013-03-21 23:13:00,52.2,23.9,30.07,South,180,3.0,21.0,33,0.00,,,0.07,meteohub,2013-03-22 06:13:00,
2013-03-21 23:18:00,51.6,24.8,30.07,South,180,5.0,15.0,35,0.00,,,0.07,meteohub,2013-03-22 06:18:00,
2013-03-21 23:23:00,51.8,24.3,30.07,SE,135,8.0,15.0,34,0.00,,,0.07,meteohub,2013-03-22 06:23:00,
2013-03-21 23:29:00,52.2,22.5,30.06,East,90,8.0,8.0,31,0.00,,,0.07,meteohub,2013-03-22 06:29:00,
2013-03-21 23:34:00,52.3,21.7,30.06,East,90,17.0,17.0,30,0.00,,,0.07,meteohub,2013-03-22 06:34:00,
2013-03-21 23:39:00,52.5,21.9,30.06,NE,45,6.0,10.0,30,0.00,,,0.07,meteohub,2013-03-22 06:39:00,
2013-03-21 23:44:00,52.7,21.4,30.06,East,90,8.0,17.0,29,0.00,,,0.07,meteohub,2013-03-22 06:44:00,
2013-03-21 23:49:00,52.7,21.4,30.06,NE,45,12.0,17.0,29,0.00,,,0.07,meteohub,2013-03-22 06:49:00,
2013-03-21 23:54:00,52.9,21.6,30.06,SE,135,16.0,17.0,29,0.00,,,0.07,meteohub,2013-03-22 06:54:00,
2013-03-21 23:59:00,53.1,22.5,30.05,NE,45,17.0,17.0,30,0.00,,,0.07,meteohub,2013-03-22 06:59:00,